Weather History for Grove, OK

Change the Weather History Date:

Saturday, March 16, 2013

  Actual Average (KSLG) Record (KSLG)
Temperature  
Mean Temperature 58 °F -  
Max Temperature 69 °F 54 °F 77 °F (2012)
Min Temperature 46 °F 36 °F 28 °F (1997)
Degree Days  
Heating Degree Days 8    
Growing Degree Days 8 (Base 50)    
Moisture  
Dew Point 44 °F    
Average Humidity 53    
Maximum Humidity 81    
Minimum Humidity 43    
Precipitation  
Precipitation 0.00 in - - ()
Sea Level Pressure  
Sea Level Pressure 29.83 in    
Wind  
Wind Speed 10 mph (NE)    
Max Wind Speed 16 mph    
Max Gust Speed 23 mph    
Visibility 10 miles    
Events Rain    
Averages and records for this station are not official NWS values.
T = Trace of Precipitation, MM = Missing Value Source: NWS Daily Summary

Daily Weather History Graph

Daily Weather History Graph

Search for Another Location

Airport:

Trip Planner

Search our weather history database for the weather conditions in past years. The results will help you decide how hot, cold, wet, or windy it might be!

Date:

Astronomy

Mar. 16, 2013 Rise Set
Actual Time 7:27 AM CDT 7:27 PM CDT
Civil Twilight 7:02 AM CDT 7:53 PM CDT
Nautical Twilight 6:32 AM CDT 8:23 PM CDT
Astronomical Twilight 6:01 AM CDT 8:53 PM CDT
Moon 10:06 AM CDT (3/16) No Moon Set
Length of Visible Light 12h 51m
Length of Day
11h 59m
Waxing Crescent, 23% of the Moon is Illuminated
Mar 16
Waxing Crescent
Mar 19
First Quarter
Mar 27
Full
Apr 2
Last Quarter
Apr 10
New

Hourly Weather History & Observations

Time (CDT) Temp. Windchill Dew Point Humidity Pressure Visibility Wind Dir Wind Speed Gust Speed Precip Events Conditions
12:15 AM 68.0 °F - 44.6 °F 43% 29.77 in 10.0 mi SSW 13.8 mph - N/A   Clear
12:35 AM 68.0 °F - 44.6 °F 43% 29.78 in 10.0 mi SSW 11.5 mph 20.7 mph N/A   Clear
12:55 AM 68.0 °F - 44.6 °F 43% 29.78 in 10.0 mi South 13.8 mph - N/A   Clear
1:15 AM 66.2 °F - 44.6 °F 46% 29.78 in 10.0 mi SSW 10.4 mph 16.1 mph N/A   Clear
1:35 AM 64.4 °F - 44.6 °F 49% 29.78 in 10.0 mi South 11.5 mph 16.1 mph N/A   Clear
1:55 AM 66.2 °F - 44.6 °F 46% 29.77 in 10.0 mi South 10.4 mph - N/A   Clear
2:15 AM 64.4 °F - 42.8 °F 45% 29.77 in 10.0 mi SSW 12.7 mph 18.4 mph N/A   Clear
2:35 AM 66.2 °F - 42.8 °F 43% 29.77 in 10.0 mi SSW 9.2 mph 20.7 mph N/A   Clear
2:55 AM 64.4 °F - 42.8 °F 45% 29.77 in 10.0 mi SSW 10.4 mph - N/A   Clear
3:15 AM 64.4 °F - 42.8 °F 45% 29.77 in 10.0 mi SSW 9.2 mph - N/A   Clear
3:35 AM 64.4 °F - 42.8 °F 45% 29.77 in 10.0 mi SSW 6.9 mph - N/A   Clear
3:55 AM 64.4 °F - 42.8 °F 45% 29.77 in 10.0 mi SSW 6.9 mph - N/A   Clear
4:15 AM 62.6 °F - 42.8 °F 48% 29.77 in 10.0 mi SSW 9.2 mph - N/A   Clear
4:35 AM 62.6 °F - 42.8 °F 48% 29.77 in 10.0 mi SSW 5.8 mph - N/A   Clear
4:55 AM 62.6 °F - 42.8 °F 48% 29.76 in 10.0 mi SSW 6.9 mph - N/A   Clear
5:15 AM 62.6 °F - 42.8 °F 48% 29.76 in 10.0 mi South 5.8 mph - N/A   Clear
5:35 AM 62.6 °F - 42.8 °F 48% 29.77 in 10.0 mi SSW 3.5 mph - N/A   Clear
5:55 AM 60.8 °F - 42.8 °F 52% 29.81 in 10.0 mi NNW 8.1 mph - N/A   Clear
6:15 AM 59.0 °F - 42.8 °F 55% 29.82 in 10.0 mi Calm Calm - N/A   Clear
6:35 AM 57.2 °F - 42.8 °F 59% 29.83 in 10.0 mi NNW 3.5 mph - N/A   Clear
6:55 AM 57.2 °F - 42.8 °F 59% 29.84 in 10.0 mi Calm Calm - N/A   Clear
7:15 AM 55.4 °F - 44.6 °F 67% 29.83 in 10.0 mi Calm Calm - N/A   Clear
7:35 AM 53.6 °F - 44.6 °F 72% 29.85 in 10.0 mi Calm Calm - N/A   Clear
7:55 AM 51.8 °F - 44.6 °F 76% 29.84 in 10.0 mi SSE 5.8 mph - N/A   Clear
8:15 AM 57.2 °F - 46.4 °F 67% 29.84 in 10.0 mi SSE 4.6 mph - N/A   Clear
8:35 AM 59.0 °F - 44.6 °F 59% 29.84 in 10.0 mi SSE 4.6 mph - N/A   Clear
8:55 AM 62.6 °F - 46.4 °F 55% 29.84 in 10.0 mi South 6.9 mph - N/A   Clear
9:15 AM 64.4 °F - 46.4 °F 52% 29.83 in 10.0 mi South 12.7 mph - N/A   Clear
9:35 AM 66.2 °F - 46.4 °F 49% 29.84 in 10.0 mi South 11.5 mph - N/A   Clear
9:55 AM 68.0 °F - 46.4 °F 46% 29.86 in 10.0 mi SW 3.5 mph - N/A   Clear
10:15 AM 68.0 °F - 46.4 °F 46% 29.86 in 10.0 mi North 5.8 mph - N/A   Clear
10:35 AM 68.0 °F - 46.4 °F 46% 29.86 in 10.0 mi North 6.9 mph - N/A   Clear
10:55 AM 68.0 °F - 46.4 °F 46% 29.86 in 10.0 mi Calm Calm - N/A   Clear
11:15 AM 69.8 °F - 46.4 °F 43% 29.86 in 10.0 mi North 6.9 mph - N/A   Clear
11:35 AM 69.8 °F - 46.4 °F 43% 29.86 in 10.0 mi Calm Calm - N/A   Clear
11:55 AM 69.8 °F - 46.4 °F 43% 29.86 in 10.0 mi ENE 6.9 mph - N/A   Clear
12:15 PM 69.8 °F - 46.4 °F 43% 29.86 in 10.0 mi ESE 3.5 mph - N/A   Clear
12:35 PM 69.8 °F - 48.2 °F 46% 29.86 in 10.0 mi NNE 11.5 mph - N/A   Clear
12:55 PM 69.8 °F - 48.2 °F 46% 29.86 in 10.0 mi NNE 8.1 mph - N/A   Clear
1:15 PM 69.8 °F - 48.2 °F 46% 29.86 in 10.0 mi NNE 11.5 mph 16.1 mph N/A   Clear
1:35 PM 69.8 °F - 48.2 °F 46% 29.85 in 10.0 mi North 12.7 mph 18.4 mph N/A   Clear
1:55 PM 69.8 °F - 48.2 °F 46% 29.84 in 10.0 mi NNE 11.5 mph - N/A   Clear
2:15 PM 69.8 °F - 48.2 °F 46% 29.83 in 10.0 mi NNE 13.8 mph 19.6 mph N/A   Clear
2:35 PM 69.8 °F - 48.2 °F 46% 29.82 in 10.0 mi NE 11.5 mph 18.4 mph N/A   Clear
2:55 PM 69.8 °F - 48.2 °F 46% 29.81 in 10.0 mi NNE 12.7 mph 18.4 mph N/A   Clear
3:15 PM 68.0 °F - 46.4 °F 46% 29.80 in 10.0 mi NNE 13.8 mph 23.0 mph N/A   Clear
3:35 PM 68.0 °F - 46.4 °F 46% 29.80 in 10.0 mi NNE 15.0 mph 23.0 mph N/A   Clear
3:55 PM 68.0 °F - 46.4 °F 46% 29.80 in 10.0 mi NNE 13.8 mph 23.0 mph N/A   Clear
4:15 PM 66.2 °F - 44.6 °F 46% 29.80 in 10.0 mi NNE 12.7 mph 21.9 mph N/A   Clear
4:35 PM 64.4 °F - 44.6 °F 49% 29.81 in 10.0 mi NNE 10.4 mph 21.9 mph N/A   Clear
4:55 PM 64.4 °F - 44.6 °F 49% 29.81 in 10.0 mi NNE 15.0 mph 21.9 mph N/A   Clear
5:15 PM 62.6 °F - 44.6 °F 52% 29.81 in 10.0 mi NNE 12.7 mph 21.9 mph N/A   Clear
5:35 PM 62.6 °F - 44.6 °F 52% 29.81 in 10.0 mi NNE 11.5 mph 17.3 mph N/A   Clear
5:55 PM 60.8 °F - 44.6 °F 55% 29.83 in 10.0 mi NNE 11.5 mph 20.7 mph N/A   Clear
6:15 PM 59.0 °F - 42.8 °F 55% 29.83 in 10.0 mi NNE 13.8 mph 20.7 mph N/A   Clear
6:35 PM 57.2 °F - 42.8 °F 59% 29.84 in 7.0 mi NNE 16.1 mph 20.7 mph N/A   Scattered Clouds
6:55 PM 55.4 °F - 41.0 °F 58% 29.85 in 10.0 mi NNE 11.5 mph 23.0 mph N/A   Scattered Clouds
7:15 PM 53.6 °F - 41.0 °F 62% 29.86 in 10.0 mi NNE 9.2 mph 18.4 mph N/A   Scattered Clouds
7:35 PM 53.6 °F - 41.0 °F 62% 29.87 in 10.0 mi NNE 11.5 mph 17.3 mph N/A   Overcast
7:55 PM 53.6 °F - 41.0 °F 62% 29.87 in 10.0 mi NNE 11.5 mph - N/A   Overcast
8:15 PM 53.6 °F - 41.0 °F 62% 29.86 in 10.0 mi NE 13.8 mph 20.7 mph N/A   Overcast
8:35 PM 51.8 °F - 41.0 °F 67% 29.86 in 7.0 mi NE 13.8 mph 20.7 mph N/A   Overcast
8:55 PM 51.8 °F - 41.0 °F 67% 29.87 in 7.0 mi NE 11.5 mph 20.7 mph N/A   Overcast
9:15 PM 51.8 °F - 41.0 °F 67% 29.88 in 7.0 mi NNE 10.4 mph 16.1 mph N/A   Overcast
9:35 PM 51.8 °F - 41.0 °F 67% 29.88 in 7.0 mi NE 11.5 mph - N/A   Overcast
9:55 PM 51.8 °F - 39.2 °F 62% 29.88 in 7.0 mi NE 11.5 mph 19.6 mph N/A   Overcast
10:15 PM 50.0 °F - 39.2 °F 66% 29.88 in 7.0 mi NE 12.7 mph 17.3 mph N/A   Overcast
10:35 PM 50.0 °F - 39.2 °F 66% 29.88 in 7.0 mi NE 9.2 mph 17.3 mph N/A   Overcast
10:55 PM 50.0 °F - 39.2 °F 66% 29.89 in 7.0 mi NE 8.1 mph 16.1 mph N/A   Overcast
11:15 PM 48.2 °F - 39.2 °F 71% 29.88 in 7.0 mi ENE 13.8 mph 19.6 mph N/A Rain Light Rain
11:35 PM 46.4 °F 41.9 °F 41.0 °F 81% 29.90 in 7.0 mi NE 9.2 mph 20.7 mph N/A Rain Light Rain
11:55 PM 46.4 °F 44.3 °F 41.0 °F 81% 29.89 in 7.0 mi NE 4.6 mph - N/A Rain Light Rain